Zurück zum Katalog

CRRES DEB

CANISTER

AktivHEO
NORAD 21778·DEBRIS·🇺🇸 United States

Gestartet Jul 25, 1990 von Cape Canaveral Space Force Station

Loading…

Nächste Überflüge (nächste 24 Stunden)

TLE

AlterndSource: Space-Track

Epoche: Aug 24, 2026, 20:41 UTC

1 21778U 90065R   26236.86180613 -.00000214  00000-0  43380-3 0  9996
2 21778  17.7446 150.6473 7004071 200.3835 104.6979  2.57329222132839

Verfolge CRRES DEB in Echtzeit mit AllMySat

Download on the App Store